This demonstration page uses our WeatherBlox Daily Observations layout. Learn more.

Left ArrowRight Arrow

Hourly Observations for December 21, 2019

Temp ( °F °C ) Dew Point ( °F °C ) Humidity (%) Winds ( mph kmh ) Pressure ( in mb ) Visibility ( mi km ) Precip ( " mm )
12:52 am 00:52 Clear 26 -3.3 23 -5 88 88 Calm 30.29 1026 10 16 0.00 0.00
1:52 am 01:52 Clear 25 -3.9 22 -5.6 88 88 S 3 6 30.30 1026 10 16 0.00 0.00
2:52 am 02:52 Mostly Clear 24 -4.4 22 -5.6 91 91 SSE 7 11 30.29 1026 10 16 0.00 0.00
3:52 am 03:52 Partly Cloudy 25 -3.9 23 -5 92 92 Calm 30.29 1026 10 16 0.00 0.00
4:52 am 04:52 Partly Cloudy 24 -4.4 22 -5.6 91 91 SSE 6 9 30.29 1026 10 16 0.00 0.00
5:52 am 05:52 Mostly Clear 25 -3.9 22 -5.6 88 88 S 3 6 30.29 1026 10 16 0.00 0.00
6:52 am 06:52 Mostly Clear 24 -4.4 22 -5.6 91 91 SSE 9 15 30.30 1026 8 13 0.00 0.00
7:52 am 07:52 Mostly Sunny 25 -3.9 23 -5 92 92 SSE 8 13 30.31 1027 8 13 0.00 0.00
8:52 am 08:52 Mostly Sunny 27 -2.8 25 -3.9 92 92 SSE 8 13 30.30 1026 8 13 0.00 0.00
9:52 am 09:52 Mostly Sunny 32 0 27 -2.8 82 82 SSE 8 13 30.30 1026 10 16 0.00 0.00
10:52 am 10:52 Mostly Sunny 36 2.2 28 -2.2 73 73 S 10 17 30.29 1026 10 16 0.00 0.00
11:52 am 11:52 Mostly Sunny 39 3.9 29 -1.7 67 67 SSE 13 20 30.26 1025 10 16 0.00 0.00
12:52 pm 12:52 Partly Cloudy 44 6.7 28 -2.2 53 53 S 10 17 30.22 1023 10 16 0.00 0.00
1:52 pm 13:52 Mostly Cloudy 46 7.8 29 -1.7 51 51 SSE 10 17 30.20 1023 10 16 0.00 0.00
2:52 pm 14:52 Mostly Cloudy 48 8.9 30 -1.1 50 50 SSE 12 19 30.19 1022 10 16 0.00 0.00
3:52 pm 15:52 Mostly Cloudy 47 8.3 30 -1.1 52 52 SSE 13 20 30.19 1022 10 16 0.00 0.00
4:52 pm 16:52 Partly Cloudy 44 6.7 29 -1.7 55 55 S 10 17 30.19 1023 10 16 0.00 0.00
5:52 pm 17:52 Partly Cloudy 43 6.1 29 -1.7 58 58 S 13 20 30.19 1022 10 16 0.00 0.00
6:52 pm 18:52 Partly Cloudy 38 3.3 28 -2.2 68 68 SSE 10 17 30.19 1022 10 16 0.00 0.00
7:52 pm 19:52 Mostly Cloudy 35 1.7 28 -2.2 76 76 SSE 10 17 30.19 1023 10 16 0.00 0.00
8:52 pm 20:52 Mostly Cloudy 34 1.1 29 -1.7 82 82 SSE 10 17 30.20 1023 10 16 0.00 0.00
9:52 pm 21:52 Mostly Cloudy 34 1.1 29 -1.7 82 82 SSE 9 15 30.20 1023 10 16 0.00 0.00
10:52 pm 22:52 Partly Cloudy 31 -0.6 28 -2.2 89 89 SSE 9 15 30.20 1023 10 16 0.00 0.00
11:52 pm 23:52 Partly Cloudy 31 -0.6 28 -2.2 89 89 SSE 12 19 30.19 1023 10 16 0.00 0.00

Powered by AerisWeather